Weather Roundup
Issued by NWS

Home | Current Version | Previous Version | Graphics & Text | Print | Product List | Glossary Off
Versions: 1 2 3 4 5 6 7 8 9 10 11 12 13 14 15 16 17 18 19 20 21 22 23 24 25 26 27 28 29 30 31 32 33 34 35 36 37 38 39 40 41 42 43 44 45 46 47 48 49 50

123
NZUS93 KARX 231310
HRRWXR

CURRENT HOURLY OBSERVATIONS ACROSS
MUCH OF THE UPPER MISSISSIPPI VALLEY
NATIONAL WEATHER SERVICE LA CROSSE WI
800 AM CDT TUE MAY 23 2017


...SOUTHEAST MINNESOTA...


CITY           SKY/WX    TMP DP  RH WIND       PRES   REMARKS
ROCHESTER      CLOUDY    50  48  93 NW8       29.81R
ROCHESTER/MAYO CLOUDY    51  50  98 CALM      29.80S
WINONA         CLOUDY    54  52  94 NW6       29.79S
AUSTIN         CLOUDY    50  46  87 NW5       29.80S
ALBERT LEA     CLOUDY    50  48  93 W6        29.82R FOG
DODGE CENTER   CLOUDY    50  46  87 NW5       29.81R
PRESTON        RAIN      48  46  93 N7        29.80S
OWATONNA       CLOUDY    50  46  87 NW9       29.81S
FARIBAULT      LGT RAIN  50  46  87 NW6       29.82S
$$

...ELSEWHERE IN MINNESOTA...


CITY           SKY/WX    TMP DP  RH WIND       PRES   REMARKS
MINNEAPOLIS    CLOUDY    52  44  74 N6        29.82R
INTNL FALLS    LGT RAIN  46  42  86 NE12      29.93R FOG
DULUTH         CLOUDY    47  44  90 N6        29.85R
RED WING       CLOUDY    54  46  76 CALM      29.79S
REDWOOD FALLS  LGT RAIN  48  45  89 NW6       29.85S FOG
MANKATO        LGT RAIN  48  46  93 NW8       29.83S
WORTHINGTON    LGT RAIN  46  44  93 N13       29.87R
FAIRMONT       CLOUDY    48  45  89 NW10      29.85R
$$

...SOUTHWEST WISCONSIN...


CITY           SKY/WX    TMP DP  RH WIND       PRES   REMARKS
LA CROSSE      CLOUDY    55  53  93 N5        29.77S
PRAIRIE DU CHI CLOUDY    53  52  97 W3        29.77S
BOSCOBEL       CLOUDY    54  53  97 CALM      29.77S FOG
LONE ROCK      CLOUDY    55  53  93 CALM      29.76S FOG
PLATTEVILLE    CLOUDY    53  53 100 W6        29.78S
FORT MC COY    CLOUDY    50  50 100 N5        29.78S
CAMP DOUGLAS   CLOUDY    52  52 100 N3        29.77S
MAUSTON-NEW LI CLOUDY    51  51  97 CALM      29.76S FOG
VIROQUA        CLOUDY    52  52 100 MISG      29.77S
WIS DELLS      CLOUDY    53  52  96 CALM      29.76F FOG
$$

...ELSEWHERE IN WISCONSIN...


CITY           SKY/WX    TMP DP  RH WIND       PRES   REMARKS
MILWAUKEE      CLOUDY    61  55  81 SW7       29.79S
MADISON        CLOUDY    56  54  93 VRB3      29.76S
GREEN BAY      CLOUDY    55  48  77 E7        29.80R
EAU CLAIRE     CLOUDY    50  48  93 NE5       29.80S
BLACK RVR FLS  CLOUDY    52  52 100 N5        29.78S
MEDFORD        DRIZZLE   46  46  97 E5        29.81S
WAUSAU         CLOUDY    49  46  90 NE5       29.80R
WIS RAPIDS     CLOUDY    52  47  83 E5        29.79S
MARSHFIELD     CLOUDY    49  46  90 NE8       29.78S
RICE LAKE      CLOUDY    49  47  93 NE5       29.83F
$$

...NORTHEAST IOWA...


CITY           SKY/WX    TMP DP  RH WIND       PRES   REMARKS
WATERLOO       CLOUDY    51  48  89 NW10      29.80S
DUBUQUE        CLOUDY    53  51  93 W8        29.78R
DECORAH        CLOUDY    52  50  93 NW5       29.77S
MASON CITY     CLOUDY    50  46  86 NW14      29.83S
CHARLES CITY   CLOUDY    52  52 100 NW6       29.81S
OELWEIN        CLOUDY    52  52 100 NW14      29.80R
$$

...ELSEWHERE IN IOWA...


CITY           SKY/WX    TMP DP  RH WIND       PRES   REMARKS
DES MOINES     MOSUNNY   54  49  83 NW10      29.84F
IOWA CITY      PTSUNNY   55  51  86 NW5       29.81S
FORT DODGE     CLOUDY    52  46  82 NW6       29.85S
MARSHALLTOWN   CLOUDY    52  50  93 W7        29.82S
CEDAR RAPIDS   PTSUNNY   53  53 100 NW7       29.79S FOG
$$

...NORTHERN ILLINOIS...


CITY           SKY/WX    TMP DP  RH WIND       PRES   REMARKS
CHICAGO-OHARE  CLOUDY    60  53  77 SW7G17    29.81S
CHICAGO-MIDWAY CLOUDY    61  54  77 SW10      29.82S
MOLINE         CLOUDY    59  54  83 SW6       29.79S
ROCKFORD       CLOUDY    58  53  84 SW8       29.81S
PEORIA         LGT RAIN  57  56  96 CALM      29.82F
$$

NOTE: "FAIR" INDICATES FEW OR NO CLOUDS BELOW 12,000 FEET WITH NO
SIGNIFICANT WEATHER AND/OR OBSTRUCTIONS TO VISIBILITY. WIND
SPEEDS ARE IN MILES-PER-HOUR.




USA.gov is the U.S. government's official web portal to all federal, state and local government web resources and services.